Zurück zum Katalog

THORAD AGENA D DEB

AktivLEO
NORAD 4738·DEBRIS·🇺🇸 United States

Gestartet Apr 8, 1970 von Vandenberg Space Force Base

Loading…

Nächste Überflüge (nächste 24 Stunden)

TLE

AktuellSource: Space-Track

Epoche: Sep 14, 2026, 07:12 UTC

1 04738U 70025CM  26257.30060148  .00001475  00000-0  74754-3 0  9997
2 04738 100.1087 273.6374 0046506  31.9252 328.4722 14.17411204852969

Verfolge THORAD AGENA D DEB in Echtzeit mit AllMySat

Download on the App Store